Domov               UVHVVR             MKGP            O straneh              
ZDRAVSTVENO VARSTVO RASTLIN
  MREŽA AGROMET. POSTAJ
 ► PROGNOSTIČNA OBVESTILA
AGROMETEOROLOŠKI PODATKI -
ARSO
OBVLADOVANJE TVEGANJ ZARADI
NEUGODNIH VREMENSKIH RAZMER
  ► NARAVNE NESREČE
  ► SUŠA/MOČA
  ► NAMAKANJE
  ► ŽLED (gozdarstvo)
KARTOGRAFSKI PRIKAZI
SPLETNE POVEZAVE
PROJEKTI IN PUBLIKACIJE

AGROMETEOROLOŠKA MREŽA: VREMENSKE POSTAJE IN FENOLOŠKA OPAZOVANJA

Pregled podatkov za lokacijo Zimica, meteorološka postaja 27472

Pregled senzorjev na lokaciji

ID Ime Zadnja
vrednost
Datum
zadnje
spremembe
Tip
senzorja
1712 Omočenost lista (U) 0 U 21.8.2017 15:00 A730WET
1713 Temperatura 2 m ( °C) 22,42 °C 21.8.2017 15:00 Generic -40 - +60 °C
1714 Relativna vlaga 2 m (% RH) 33,82 % RH 21.8.2017 15:00 Generic 0 - 100 %
1715 Padavine 0.2 mm (mm) 0 mm 21.8.2017 15:00 Generic 0.2 mm

Pregled podatkov zadnjih 24 ur

Zap.
št.
Datum in čas Zimica
Omočenost
lista
Padavine
0.2
mm
Relativna
vlaga
2
m
Temperatura
2
m
0 21.8.2017 14:00 0 0 33,82 22,42
1 21.8.2017 13:30 0 0 39,56 21
2 21.8.2017 13:00 0 0 37,85 21,98
3 21.8.2017 12:30 0 0 38,29 22,22
4 21.8.2017 12:00 0 0 38,95 21,81
5 21.8.2017 11:30 0 0 36,46 21,68
6 21.8.2017 11:00 0 0 42,2 20,88
7 21.8.2017 10:30 0 0 44,32 20,39
8 21.8.2017 10:00 0 0 44,91 20,12
9 21.8.2017 09:30 0 0 47,42 19,58
10 21.8.2017 09:00 0 0 52,21 18,8
11 21.8.2017 08:30 0 0 59,15 17,83
12 21.8.2017 08:00 0 0 58,34 16,83
13 21.8.2017 07:30 0 0 59,19 15,19
14 21.8.2017 07:00 0 0 61,98 14,02
15 21.8.2017 06:30 0 0 64,59 12,89
16 21.8.2017 06:00 0 0 69,38 12,01
17 21.8.2017 05:30 0 0 71,72 11,87
18 21.8.2017 05:00 0 0 71,6 12,11
19 21.8.2017 04:30 0 0 71,48 12,31
20 21.8.2017 04:00 0 0 68,96 11,82
21 21.8.2017 03:30 0 0 81,59 9,94
22 21.8.2017 03:00 0 0 84,54 10,82
23 21.8.2017 02:30 0 0 72,94 11,43
24 21.8.2017 02:00 0 0 73,5 11,28
25 21.8.2017 01:30 0 0 79,76 11,26
26 21.8.2017 01:00 0 0 67,03 13,31
27 21.8.2017 00:30 0 0 65,62 13,46
28 21.8.2017 00:00 0 0 71,97 12,94
29 20.8.2017 23:30 0 0 63,79 12,21
30 20.8.2017 23:00 0 0 80,34 12,26
31 20.8.2017 22:30 0 0 73,5 11,72
32 20.8.2017 22:00 0 0 83,88 12,58
33 20.8.2017 21:30 0 0 92,23 12,01
34 20.8.2017 21:00 0 0 85,93 13,68
35 20.8.2017 20:30 0 0 73,68 14,31
36 20.8.2017 20:00 0 0 88,89 13,82
37 20.8.2017 19:30 0 0 93,33 14,6
38 20.8.2017 19:00 0 0 90,16 15,68
39 20.8.2017 18:30 0 0 86,2 17,36
40 20.8.2017 18:00 0 0 69,77 19,88
41 20.8.2017 17:30 0 0 66,01 20,29
42 20.8.2017 17:00 0 0 68,3 18,93
43 20.8.2017 16:30 0 0 86,81 16,56
44 20.8.2017 16:00 0,6 87,4 16,29
© 2011 Ministrstvo za kmetijstvo, gozdarstvo in prehrano. Vse pravice pridržane.